| time (UTC) | temp F | wind direction | speed MPH | gust MPH | rain 1hr in | rain 24hr in | rain mn in | humidity % | barometer mb |
| 20260505052748 | 50 | 113 | 1.0 | 1.0 | 0.00 | 0.00 | 0.19 | 88 | 1012.2 |
| 20260505051245 | 50 | 72 | 1.0 | 1.0 | 0.00 | 0.00 | 0.19 | 89 | 1012.3 |
| 20260505041233 | 49 | 44 | 0.0 | 2.0 | 0.00 | 0.00 | 0.18 | 85 | 1013.0 |
| 20260505035730 | 49 | 65 | 0.0 | 3.0 | 0.00 | 0.00 | 0.18 | 86 | 1012.8 |
| 20260505034227 | 49 | 36 | 0.0 | 3.0 | 0.00 | 0.00 | 0.18 | 88 | 1012.7 |
| 20260505032724 | 49 | 117 | 1.0 | 3.0 | 0.00 | 0.00 | 0.17 | 86 | 1012.4 |
| 20260505031222 | 50 | 13 | 1.0 | 2.0 | 0.00 | 0.00 | 0.15 | 82 | 1012.6 |
| 20260505025719 | 51 | 85 | 1.0 | 2.0 | 0.00 | 0.00 | 0.12 | 79 | 1012.3 |
| 20260505024216 | 51 | 358 | 1.0 | 3.0 | 0.00 | 0.00 | 0.09 | 78 | 1012.0 |
| 20260505022713 | 52 | 7 | 0.0 | 1.0 | 0.00 | 0.00 | 0.08 | 70 | 1011.7 |
| 20260505021210 | 53 | 128 | 2.0 | 3.0 | 0.00 | 0.00 | 0.07 | 67 | 1011.6 |
| 20260505015707 | 53 | 260 | 1.0 | 3.0 | 0.00 | 0.00 | 0.06 | 62 | 1011.3 |
| 20260505014204 | 54 | 0 | 1.0 | 6.0 | 0.00 | 0.00 | 0.05 | 60 | 1010.4 |
| 20260505011158 | 59 | 315 | 1.0 | 3.0 | 0.00 | 0.00 | 0.00 | 44 | 1009.4 |
| 20260505005655 | 62 | 314 | 1.0 | 4.0 | 0.00 | 0.00 | 0.00 | 36 | 1009.3 |
| 20260505004152 | 64 | 357 | 3.0 | 3.0 | 0.00 | 0.00 | 0.00 | 33 | 1008.8 |
| 20260505002649 | 65 | 306 | 0.0 | 2.0 | 0.00 | 0.00 | 0.00 | 31 | 1008.7 |
| 20260505001146 | 66 | 168 | 1.0 | 2.0 | 0.00 | 0.00 | 0.00 | 29 | 1008.8 |
| 20260504235643 | 69 | 88 | 1.0 | 4.0 | 0.00 | 0.00 | 0.00 | 25 | 1008.8 |
| 20260504234140 | 70 | 180 | 0.0 | 3.0 | 0.00 | 0.00 | 0.00 | 24 | 1008.7 |
| 20260504232637 | 70 | 274 | 4.0 | 13.0 | 0.00 | 0.00 | 0.00 | 21 | 1008.7 |
| 20260504231134 | 70 | 225 | 11.0 | 12.0 | 0.00 | 0.00 | 0.00 | 19 | 1008.6 |
| 20260504225631 | 71 | 268 | 5.0 | 13.0 | 0.00 | 0.00 | 0.00 | 19 | 1008.2 |
| 20260504224129 | 71 | 241 | 6.0 | 11.0 | 0.00 | 0.00 | 0.00 | 19 | 1008.4 |
| 20260504222626 | 71 | 261 | 7.0 | 9.0 | 0.00 | 0.00 | 0.00 | 20 | 1008.4 |
| 20260504221123 | 71 | 248 | 6.0 | 10.0 | 0.00 | 0.00 | 0.00 | 21 | 1008.4 |
| 20260504215620 | 70 | 232 | 7.0 | 10.0 | 0.00 | 0.00 | 0.00 | 23 | 1008.7 |
| 20260504214117 | 72 | 92 | 4.0 | 6.0 | 0.00 | 0.00 | 0.00 | 25 | 1008.9 |
| 20260504212614 | 71 | 207 | 6.0 | 6.0 | 0.00 | 0.00 | 0.00 | 24 | 1009.4 |
| 20260504211111 | 70 | 228 | 5.0 | 11.0 | 0.00 | 0.00 | 0.00 | 24 | 1009.4 |
| 20260504204105 | 67 | 154 | 1.0 | 7.0 | 0.00 | 0.00 | 0.00 | 29 | 1010.0 |
| 20260504202602 | 67 | 242 | 2.0 | 7.0 | 0.00 | 0.00 | 0.00 | 29 | 1010.2 |
| 20260504201059 | 66 | 233 | 4.0 | 7.0 | 0.00 | 0.00 | 0.00 | 31 | 1010.6 |
| 20260504195556 | 67 | 282 | 3.0 | 6.0 | 0.00 | 0.00 | 0.00 | 29 | 1010.6 |
| 20260504194053 | 69 | 257 | 5.0 | 5.0 | 0.00 | 0.00 | 0.00 | 28 | 1010.8 |
| 20260504192550 | 69 | 247 | 4.0 | 7.0 | 0.00 | 0.00 | 0.00 | 29 | 1011.1 |
| 20260504191047 | 65 | 87 | 1.0 | 5.0 | 0.00 | 0.00 | 0.00 | 35 | 1011.2 |
| 20260504185544 | 65 | 270 | 2.0 | 5.0 | 0.00 | 0.00 | 0.00 | 34 | 1011.5 |
| 20260504184041 | 66 | 273 | 6.0 | 7.0 | 0.00 | 0.00 | 0.00 | 31 | 1011.5 |
| 20260504182539 | 68 | 260 | 4.0 | 10.0 | 0.00 | 0.00 | 0.00 | 26 | 1011.5 |
| 20260504182355 | 69 | 226 | 4.0 | 11.0 | 0.00 | 0.00 | 0.00 | 29 | 1011.8 |
| 20260504181036 | 70 | 69 | 3.0 | 6.0 | 0.00 | 0.00 | 0.00 | 27 | 1011.4 |
| 20260504175533 | 69 | 226 | 4.0 | 11.0 | 0.00 | 0.00 | 0.00 | 29 | 1011.8 |
| 20260504174030 | 68 | 118 | 3.0 | 7.0 | 0.00 | 0.00 | 0.00 | 28 | 1011.9 |
| 20260504172527 | 69 | 274 | 1.0 | 6.0 | 0.00 | 0.00 | 0.00 | 28 | 1011.7 |
| 20260504171024 | 69 | 265 | 1.0 | 3.0 | 0.00 | 0.00 | 0.00 | 28 | 1011.8 |
| 20260504151000 | 60 | 36 | 2.0 | 3.0 | 0.00 | 0.00 | 0.00 | 46 | 1013.9 |
| 20260504140949 | 52 | 76 | 2.0 | 3.0 | 0.00 | 0.00 | 0.00 | 60 | 1014.5 |
| 20260504080838 | 46 | 94 | 6.0 | 6.0 | 0.00 | 0.00 | 0.00 | 50 | 1013.2 |